Date String (YYYY-MM-DD hh:mm:ss) UTC,Instrument flags,Ambient pressure (hPa),Sample flow (lpm),Bypass flow (lpm),Sample temperature (°C),Ambient temperature (°C),ASC tube jacket temperature (°C),LED temperature (°C),Box temperature (°C),Sample RH (%),Span deviation,Mass concentration (μg/m³),Mass concentration (μg/m³),Mass concentration (μg/m³)
DateTimeUTC,F1_M11,P_M11,Q1_M11,Q2_M11,T1_M11,T2_M11,T3_M11,T4_M11,T5_M11,U1_M11,ZSPAN_M11,X0_M11,X2_M11,X1_M11
2021-10-25 15:00:00,,0822.6,5.01,0.00,26.2,25.4,00.0,35.3,28.1,13.5,0000.0,0014.07,0004.30,0002.43
2021-10-25 15:01:00,,0822.7,5.00,0.00,26.2,25.4,00.0,35.3,28.1,13.5,0000.0,0013.63,0004.22,0002.38
2021-10-25 15:02:00,,0822.8,5.00,0.00,26.2,25.4,00.0,35.3,28.1,13.7,0000.0,0011.54,0004.05,0002.32
2021-10-25 15:03:00,,0822.8,4.99,0.00,26.2,25.4,00.0,35.3,28.1,14.0,0000.0,0011.44,0003.88,0002.28
2021-10-25 15:04:00,,0822.9,4.99,0.00,26.2,25.4,00.0,35.3,28.1,14.1,0000.0,0011.18,0003.77,0002.26
2021-10-25 15:05:00,,0822.9,5.01,0.00,26.2,25.3,00.0,35.3,28.0,14.1,0000.0,0011.37,0003.81,0002.24
2021-10-25 15:06:00,,0822.8,5.01,0.00,26.2,25.3,00.0,35.3,28.0,14.5,0000.0,0012.00,0003.88,0002.23
2021-10-25 15:07:00,,0822.7,5.00,0.00,26.2,25.3,00.0,35.3,28.0,14.4,0000.0,0013.30,0003.95,0002.22
2021-10-25 15:08:00,,0822.6,5.00,0.00,26.2,25.3,00.0,35.3,28.0,14.4,0000.0,0013.27,0003.97,0002.20
2021-10-25 15:09:00,,0822.6,5.00,0.00,26.2,25.3,00.0,35.3,28.0,14.4,0000.0,0013.33,0004.01,0002.20
2021-10-25 15:10:00,,0822.6,5.00,0.00,26.2,25.4,00.0,35.2,28.0,14.2,0000.0,0013.90,0004.10,0002.19
2021-10-25 15:11:00,,0822.7,5.00,0.00,26.2,25.4,00.0,35.3,28.0,14.3,0000.0,0015.48,0004.17,0002.21
2021-10-25 15:12:00,,0822.8,5.00,0.00,26.2,25.4,00.0,35.3,28.0,14.2,0000.0,0017.24,0004.21,0002.21
2021-10-25 15:13:00,,0822.8,5.00,0.00,26.2,25.4,00.0,35.3,28.1,14.3,0000.0,0019.15,0004.31,0002.21
2021-10-25 15:14:00,,0823.0,4.99,0.00,26.2,25.4,00.0,35.3,28.1,14.1,0000.0,0019.34,0004.31,0002.21
2021-10-25 15:15:00,,0822.9,5.00,0.00,26.2,25.4,00.0,35.3,28.1,14.1,0000.0,0019.75,0004.29,0002.21
2021-10-25 15:16:00,,0822.9,5.00,0.00,26.2,25.4,00.0,35.3,28.1,14.3,0000.0,0020.40,0004.28,0002.24
2021-10-25 15:17:00,,0822.8,4.99,0.00,26.2,25.4,00.0,35.3,28.1,14.1,0000.0,0020.21,0004.22,0002.24
2021-10-25 15:18:00,,0822.8,5.00,0.00,26.3,25.4,00.0,35.3,28.1,14.3,0000.0,0018.93,0004.18,0002.25
2021-10-25 15:19:00,,0822.8,5.01,0.00,26.3,25.4,00.0,35.3,28.1,14.4,0000.0,0019.39,0004.22,0002.29
2021-10-25 15:20:00,,0822.9,4.98,0.00,26.3,25.4,00.0,35.3,28.1,14.4,0000.0,0020.30,0004.23,0002.31
2021-10-25 15:21:00,,0823.0,5.00,0.00,26.3,25.4,00.0,35.3,28.1,14.5,0000.0,0021.57,0004.34,0002.34
2021-10-25 15:22:00,,0822.9,5.00,0.00,26.3,25.5,00.0,35.3,28.1,14.4,0000.0,0022.04,0004.56,0002.38
2021-10-25 15:23:00,,0822.8,5.00,0.00,26.3,25.5,00.0,35.3,28.2,14.4,0000.0,0021.86,0004.84,0002.45
2021-10-25 15:24:00,,0822.7,5.00,0.00,26.3,25.5,00.0,35.3,28.2,14.3,0000.0,0022.88,0005.13,0002.50
2021-10-25 15:25:00,,0822.8,5.01,0.00,26.3,25.5,00.0,35.3,28.2,14.4,0000.0,0024.42,0005.39,0002.56
2021-10-25 15:26:00,,0822.9,4.99,0.00,26.3,25.5,00.0,35.3,28.2,14.5,0000.0,0025.13,0005.53,0002.58
2021-10-25 15:27:00,,0823.0,4.98,0.00,26.3,25.5,00.0,35.3,28.2,14.8,0000.0,0024.69,0005.53,0002.57
2021-10-25 15:28:00,,0822.9,5.00,0.00,26.3,25.4,00.0,35.3,28.1,14.8,0000.0,0024.62,0005.45,0002.57
2021-10-25 15:29:00,,0822.9,5.01,0.00,26.3,25.4,00.0,35.3,28.1,14.7,0000.0,0025.49,0005.47,0002.63
2021-10-25 15:30:00,,0822.8,5.00,0.00,26.3,25.4,00.0,35.3,28.1,14.7,0000.0,0025.10,0005.47,0002.67
2021-10-25 15:31:00,,0822.8,5.01,0.00,26.3,25.4,00.0,35.3,28.1,14.7,0000.0,0023.85,0005.46,0002.70
2021-10-25 15:32:00,,0822.8,5.00,0.00,26.3,25.4,00.0,35.3,28.1,14.7,0000.0,0022.55,0005.31,0002.71
2021-10-25 15:33:00,,0822.8,4.99,0.00,26.3,25.5,00.0,35.3,28.1,14.8,0000.0,0022.12,0005.08,0002.67
2021-10-25 15:34:00,,0822.8,5.01,0.00,26.3,25.5,00.0,35.3,28.1,14.7,0000.0,0021.40,0004.82,0002.62
2021-10-25 15:35:00,,0822.8,5.00,0.00,26.3,25.5,00.0,35.4,28.2,14.6,0000.0,0018.45,0004.47,0002.60
2021-10-25 15:36:00,,0822.8,5.00,0.00,26.3,25.5,00.0,35.3,28.2,14.6,0000.0,0016.43,0004.22,0002.58
2021-10-25 15:37:00,,0822.8,5.00,0.00,26.3,25.5,00.0,35.3,28.2,14.6,0000.0,0016.49,0004.13,0002.61
2021-10-25 15:38:00,,0822.8,5.01,0.00,26.3,25.5,00.0,35.3,28.1,14.6,0000.0,0016.64,0004.14,0002.64
2021-10-25 15:39:00,,0822.8,5.00,0.00,26.3,25.5,00.0,35.3,28.1,14.6,0000.0,0016.24,0004.16,0002.67
2021-10-25 15:40:00,,0822.7,5.00,0.00,26.3,25.5,00.0,35.3,28.2,14.6,0000.0,0016.14,0004.20,0002.65
2021-10-25 15:41:00,,0822.7,5.02,0.00,26.4,25.5,00.0,35.4,28.2,14.7,0000.0,0016.76,0004.24,0002.61
2021-10-25 15:42:00,,0822.8,4.99,0.00,26.4,25.5,00.0,35.4,28.2,14.6,0000.0,0017.20,0004.25,0002.58
2021-10-25 15:43:00,,0822.8,5.00,0.00,26.4,25.5,00.0,35.4,28.2,14.7,0000.0,0017.34,0004.34,0002.57
2021-10-25 15:44:00,,0822.9,5.00,0.00,26.4,25.6,00.0,35.4,28.2,14.7,0000.0,0015.98,0004.36,0002.59
2021-10-25 15:45:00,,0822.9,5.00,0.00,26.4,25.5,00.0,35.4,28.3,14.9,0000.0,0015.07,0004.38,0002.61
2021-10-25 15:46:00,,0822.8,5.01,0.00,26.4,25.5,00.0,35.4,28.2,15.0,0000.0,0015.19,0004.37,0002.60
2021-10-25 15:47:00,,0822.7,4.99,0.00,26.3,25.5,00.0,35.4,28.2,15.1,0000.0,0015.08,0004.40,0002.60
2021-10-25 15:48:00,,0822.6,5.01,0.00,26.3,25.5,00.0,35.4,28.2,15.1,0000.0,0014.35,0004.42,0002.58
2021-10-25 15:49:00,,0822.7,5.01,0.00,26.3,25.5,00.0,35.4,28.2,15.1,0000.0,0015.22,0004.44,0002.58
2021-10-25 15:50:00,,0822.7,4.99,0.00,26.3,25.4,00.0,35.4,28.1,15.1,0000.0,0015.34,0004.43,0002.59
2021-10-25 15:51:00,,0822.7,5.00,0.00,26.3,25.4,00.0,35.4,28.1,15.0,0000.0,0015.41,0004.37,0002.62
2021-10-25 15:52:00,,0822.7,5.00,0.00,26.3,25.4,00.0,35.4,28.1,15.1,0000.0,0015.03,0004.38,0002.66
2021-10-25 15:53:00,,0822.7,5.01,0.00,26.3,25.4,00.0,35.4,28.1,15.2,0000.0,0014.36,0004.39,0002.73
2021-10-25 15:54:00,,0822.6,4.99,0.00,26.3,25.4,00.0,35.4,28.1,15.1,0000.0,0014.62,0004.34,0002.77
2021-10-25 15:55:00,,0822.7,4.98,0.00,26.3,25.4,00.0,35.4,28.1,15.3,0000.0,0014.29,0004.31,0002.84
2021-10-25 15:56:00,,0822.6,4.99,0.00,26.3,25.4,00.0,35.4,28.1,15.2,0000.0,0015.15,0004.30,0002.90
2021-10-25 15:57:00,,0822.6,5.00,0.00,26.3,25.5,00.0,35.4,28.1,15.3,0000.0,0014.66,0004.30,0002.96
2021-10-25 15:58:00,,0822.7,4.99,0.00,26.3,25.5,00.0,35.3,28.1,15.3,0000.0,0014.66,0004.32,0003.01
2021-10-25 15:59:00,,0822.6,4.99,0.00,26.3,25.5,00.0,35.4,28.2,15.4,0000.0,0014.66,0004.26,0003.05
